Terug naar catalogus

JILIN-1 GAOFEN 06A 27 XING

ActiefWetenschapSSO
NORAD 57038·PAYLOAD·🇨🇳 China
Deze satellietnaam is nog niet bevestigd door officiële bronnen.

Gelanceerd Jun 15, 2023 vanaf Taiyuan Satellite Launch Center

Loading…

Volgende Passages (komende 24 uur)

TLE

VersSource: Space-Track

Epoch: Sep 14, 2026, 13:27 UTC

1 57038U 23085AL  26257.56093887  .00013240  00000-0  36445-3 0  9994
2 57038  97.5022  11.6086 0007358 116.9374 243.2622 15.37268666180477

Volg JILIN-1 GAOFEN 06A 27 XING in realtime met AllMySat

Download on the App Store